Terminal Aerodrome Forecast
Issued by NWS

Home | Current Version | Previous Version | Text Only | Print | Product List | Glossary On
Versions: 1 2 3 4 5 6 7 8 9 10 11 12 13 14 15 16 17
000
FTUS45 KTFX 251130
TAFGTF
TAF
KGTF 251130Z 2512/2612 23010KT P6SM SCT200
     FM252000 VRB06KT P6SM SCT090
     FM260200 01007KT P6SM VCSH BKN060 OVC100=

USA.gov is the U.S. government's official web portal to all federal, state and local government web resources and services.